{"data":{"norad_id":68960,"intl_designator":"2026-099K","name":"STARLINK-36978","alt_names":[],"object_type":"PAYLOAD","status":"ACTIVE","operator":null,"country":"US","launch_date":"2026-05-01","launch_site_code":"AFETR","launch_vehicle":null,"mission":null,"orbit_class":"UNKNOWN","rcs_meters":null,"size_class":null,"mass_kg":null,"dimensions":null,"purposes":["comms"],"wikipedia_slug":null,"has_3d_model":false,"image_url":null,"decayed_at":null,"tle_current":{"epoch":"2026-05-25T04:00:03.998880Z","epoch_age_seconds":60323,"freshness":"FRESH","line1":"1 68960U 26099K   26145.16671295  .00104572  00000+0  18669-2 0  9990","line2":"2 68960  53.1591 270.8149 0001821  53.4740 233.6993 15.49251379  5018","mean_motion":15.49251379,"eccentricity":0.0001821,"inclination_deg":53.1591,"raan_deg":270.8149,"arg_perigee_deg":53.474,"mean_anomaly_deg":233.6993,"bstar":0.0018669,"rev_number":501,"period_min":92.94811800842,"perigee_km":417.67706819551,"apogee_km":420.15255446519,"semimajor_km":6797.0518113303,"source":"CELESTRAK","updated_at":"2026-05-25T13:38:22.073647Z"}}}